[[{"header":{"parameterUnit":"m.s-1","parameterCategory":1,"la1":30.2992,"la2":30.254,"lo1":-89.0895,"lo2":-89.0443,"dy":0.0025,"dx":0.0025,"nx":19,"ny":19,"refTime":"2026-05-03T21:00:00:Z","depth":0,"parameterNumber":2,"parameterNumberName":"U-component_of_WINDS"},"data":[0,0,0,-1.8134,-1.8136,-1.8247,-1.8247,-1.8379,-1.838,0,0,0,0,0,0,0,0,0,0,0,-1.8098,-1.8098,-1.8134,-1.8137,-1.8247,-1.8247,-1.8379,-1.838,0,0,0,0,0,0,0,0,0,0,0,-1.8097,-1.8098,-1.8099,-1.8137,-1.8247,-1.8247,-1.8378,-1.8298,0,0,0,0,0,0,0,0,0,0,-1.8193,-1.8155,-1.8098,-1.8099,-1.8138,-1.8247,-1.8247,-1.8294,-1.8303,-1.8325,0,-1.8346,0,-1.8365,-1.8388,-1.8389,0,0,0,-1.8139,-1.8148,-1.8181,-1.8099,-1.8139,-1.8246,-1.8198,-1.8299,-1.8309,-1.8337,-1.8348,-1.8353,-1.8367,-1.8389,-1.839,-1.8513,-1.8514,0,0,-1.8133,-1.8115,-1.8175,-1.8188,-1.8172,-1.8194,-1.8201,-1.8306,-1.8315,-1.8348,-1.8356,-1.8369,-1.839,-1.8391,-1.8513,-1.8513,0,0,0,-1.8114,-1.811,-1.8142,-1.8182,-1.8203,-1.8197,-1.8205,-1.8311,-1.8322,-1.8357,-1.8371,-1.8391,-1.8392,-1.8512,-1.8513,-1.8518,0,0,0,-1.811,-1.8099,-1.8139,-1.8129,-1.8201,-1.8258,-1.8208,-1.8315,-1.8328,-1.837,-1.8391,-1.8394,-1.8512,-1.8513,-1.8517,-1.8522,0,0,0,-1.8092,-1.8097,-1.8112,-1.8127,-1.8174,-1.8257,-1.8275,-1.8318,-1.8336,-1.8389,-1.8394,-1.8512,-1.8513,-1.8516,-1.8521,-1.8549,0,0,0,-1.8066,-1.8114,-1.8112,-1.8171,-1.8173,-1.826,-1.8275,-1.834,-1.8386,-1.8391,-1.8512,-1.8513,-1.8515,-1.852,-1.8548,-1.8569,-1.8576,0,0,-1.8116,-1.812,-1.8156,-1.8157,-1.8239,-1.8245,-1.8328,-1.8387,-1.8408,-1.8476,-1.848,-1.8517,-1.8521,-1.8549,-1.8625,-1.8631,0,0,0,-1.8166,-1.8191,-1.8217,-1.8261,-1.8308,-1.8349,-1.8397,-1.8419,-1.8478,-1.844,-1.8536,-1.8539,-1.8556,-1.8566,-1.8571,-1.8586,-1.8518,-1.8517,-1.8517,-1.821,-1.8235,-1.8297,-1.8335,-1.8377,-1.8427,-1.8463,-1.8501,-1.8514,-1.8536,-1.8556,-1.86,-1.8612,-1.8616,-1.8631,-1.857,-1.857,-1.857,-1.857,-1.8285,-1.8325,-1.8342,-1.8407,-1.8433,-1.8487,-1.8537,-1.8544,-1.8598,-1.8587,-1.8603,-1.8588,-1.8621,-1.8636,-1.8571,-1.8571,-1.8571,-1.8571,-1.8571,-1.8316,-1.834,-1.8366,-1.8432,-1.848,-1.8517,-1.8568,-1.859,-1.8611,-1.8627,-1.865,-1.865,-1.8651,-1.8636,-1.8637,-1.8637,-1.8637,-1.8637,-1.8637,-1.8337,-1.8367,-1.8408,-1.8462,-1.8493,-1.8536,-1.8587,-1.8617,-1.8656,-1.8668,-1.8668,-1.8677,-1.862,-1.8605,-1.864,-1.8639,-1.8639,-1.8639,-1.8638,-1.8402,-1.8391,-1.8454,-1.8485,-1.855,-1.8595,-1.8623,-1.8683,-1.8711,-1.8735,-1.8742,-1.8696,-1.87,-1.8696,-1.8683,-1.8737,-1.8737,-1.8737,-1.8737,-1.8427,-1.8432,-1.8501,-1.8549,-1.8598,-1.863,-1.8698,-1.8737,-1.8776,-1.8795,-1.8791,-1.8776,-1.8771,-1.8778,-1.8772,-1.8761,-1.8832,-1.8833,-1.8833,-1.8468,-1.8479,-1.8533,-1.8572,-1.8625,-1.8669,-1.8733,-1.8786,-1.8828,-1.8837,-1.8809,-1.8805,-1.8782,-1.8773,-1.878,-1.8771,-1.875,0,0]},{"header":{"parameterUnit":"m.s-1","parameterCategory":1,"la1":30.2992,"la2":30.254,"lo1":-89.0895,"lo2":-89.0443,"dy":0.0025,"dx":0.0025,"nx":19,"ny":19,"refTime":"2026-05-03T21:00:00:Z","depth":0,"parameterNumber":3,"parameterNumberName":"V-component_of_WINDS"},"data":[0,0,0,-0.3223,-0.3224,-0.3246,-0.3246,-0.327,-0.327,0,0,0,0,0,0,0,0,0,0,0,-0.3213,-0.3213,-0.3223,-0.3224,-0.3246,-0.3246,-0.327,-0.327,0,0,0,0,0,0,0,0,0,0,0,-0.3213,-0.3213,-0.3213,-0.3224,-0.3246,-0.3246,-0.327,-0.3255,0,0,0,0,0,0,0,0,0,0,-0.3234,-0.322,-0.3213,-0.3213,-0.3224,-0.3246,-0.3246,-0.3254,-0.3256,-0.3257,0,-0.3256,0,-0.3263,-0.3271,-0.3271,0,0,0,-0.3227,-0.3219,-0.3228,-0.3213,-0.3224,-0.3246,-0.3237,-0.3255,-0.3257,-0.3259,-0.3257,-0.3258,-0.3264,-0.3271,-0.3271,-0.3264,-0.3264,0,0,-0.3226,-0.3215,-0.3227,-0.3229,-0.3224,-0.3236,-0.3237,-0.3256,-0.3254,-0.3257,-0.3259,-0.3264,-0.3271,-0.3272,-0.3264,-0.3264,0,0,0,-0.322,-0.3214,-0.3223,-0.3228,-0.3232,-0.3237,-0.3238,-0.3253,-0.3257,-0.3259,-0.3264,-0.3272,-0.3272,-0.3265,-0.3264,-0.3242,0,0,0,-0.3219,-0.321,-0.3222,-0.3216,-0.3232,-0.3243,-0.3234,-0.3255,-0.3258,-0.3264,-0.3272,-0.3272,-0.3265,-0.3264,-0.3243,-0.3234,0,0,0,-0.3213,-0.321,-0.3211,-0.3215,-0.3224,-0.3242,-0.3248,-0.3256,-0.3261,-0.3271,-0.3272,-0.3265,-0.3265,-0.3244,-0.3236,-0.3227,0,0,0,-0.3202,-0.3193,-0.3211,-0.3203,-0.3224,-0.3228,-0.3248,-0.3252,-0.3258,-0.3272,-0.3265,-0.3264,-0.3245,-0.3237,-0.3228,-0.3218,-0.3213,0,0,-0.3184,-0.3191,-0.3187,-0.3203,-0.3201,-0.3226,-0.3222,-0.3239,-0.3251,-0.326,-0.326,-0.3243,-0.3236,-0.3228,-0.3189,-0.3185,0,0,0,-0.3177,-0.3174,-0.3176,-0.318,-0.3192,-0.3201,-0.322,-0.3227,-0.3234,-0.3253,-0.3239,-0.3235,-0.3231,-0.3226,-0.3223,-0.3219,-0.3262,-0.3262,-0.3262,-0.3136,-0.315,-0.3144,-0.3161,-0.3165,-0.3184,-0.3189,-0.32,-0.3216,-0.3212,-0.3214,-0.3189,-0.3183,-0.318,-0.3176,-0.3211,-0.3211,-0.321,-0.321,-0.311,-0.3107,-0.3125,-0.3126,-0.3141,-0.3143,-0.316,-0.317,-0.3174,-0.3189,-0.3186,-0.3199,-0.3175,-0.3173,-0.3209,-0.3209,-0.3209,-0.321,-0.321,-0.3083,-0.3084,-0.3091,-0.3098,-0.3102,-0.3121,-0.3122,-0.3137,-0.3152,-0.3149,-0.3152,-0.3152,-0.3153,-0.3149,-0.3149,-0.3149,-0.3149,-0.3149,-0.3149,-0.3053,-0.3061,-0.306,-0.3071,-0.3075,-0.3082,-0.3101,-0.3106,-0.3115,-0.3126,-0.3126,-0.314,-0.317,-0.3177,-0.3147,-0.3148,-0.3148,-0.3148,-0.3148,-0.3019,-0.3029,-0.3027,-0.3031,-0.3045,-0.3047,-0.3066,-0.3074,-0.3081,-0.3081,-0.3096,-0.3116,-0.3124,-0.3127,-0.3132,-0.3093,-0.3093,-0.3093,-0.3093,-0.2996,-0.3001,-0.3002,-0.3007,-0.3014,-0.303,-0.3028,-0.3042,-0.3058,-0.3063,-0.3071,-0.308,-0.3082,-0.3089,-0.3093,-0.3098,-0.3051,-0.3051,-0.3051,-0.2976,-0.2982,-0.2977,-0.2991,-0.3002,-0.3012,-0.301,-0.3016,-0.3036,-0.305,-0.3067,-0.3069,-0.3083,-0.3087,-0.31,-0.3106,-0.3116,0,0]}]]